Grand Junction, CO

8:18 PM MST on November 21, 2019 (GMT -0700)
Walker

Weather History for KGJT - September, 2019

Change the Weather History Date:

Thursday, September 26, 2019

  Actual Average Record
Temperature  
Mean Temperature 66 °F 62 °F  
Max Temperature 81 °F 75 °F 89 °F (1966)
Min Temperature 51 °F 48 °F 34 °F (1970)
Degree Days  
Heating Degree Days 0 5  
Month to date heating degree days 30 50  
Since 1 July heating degree days 30 53  
Cooling Degree Days 1 1  
Month to date cooling degree days 146 99  
Year to date cooling degree days 1267 1118  
Growing Degree Days 16 (Base 50)    
Moisture  
Dew Point 37 °F    
Average Humidity 36    
Maximum Humidity 50    
Minimum Humidity 21    
Precipitation  
Precipitation 0.00 in 0.04 in 0.43 in (1926)
Month to date precipitation 0.24 1.04  
Year to date precipitation 7.10 6.89  
Snow  
Snow 0.00 in 0.00 in 0.00 in (2018)
Month to date snowfall 0.0 0.0  
Since 1 July snowfall 0.0 0.0  
Since 1 September snowfall 0.0 0.0  
Snow Depth 0.00 in    
Sea Level Pressure  
Sea Level Pressure 29.81 in    
Wind  
Wind Speed 7 mph (ESE)    
Max Wind Speed 16 mph    
Max Gust Speed 28 mph    
Visibility 10 miles    
Events      
T = Trace of Precipitation, MM = Missing Value Source: NWS Daily Summary

Daily Weather History Graph

Daily Weather History Graph

Search for Another Location

Airport or City:

Astronomy

Sep. 26, 2019 Rise Set
Actual Time 7:05 AM MDT 7:04 PM MDT
Civil Twilight 6:38 AM MDT 7:31 PM MDT
Nautical Twilight 6:07 AM MDT 8:02 PM MDT
Astronomical Twilight 5:36 AM MDT 8:34 PM MDT
Moon 4:17 AM MDT (9/26) 6:18 PM MDT (9/26)
Length of Visible Light 12h 52m
Length of Day
11h 59m
Waning Crescent, 6% of the Moon is Illuminated
Sep 26
Waning Crescent
Sep 28
New
Oct 5
First Quarter
Oct 13
Full
Oct 21
Last Quarter

Hourly Weather History & Observations

Time (MDT) Temp. Dew Point Humidity Pressure Visibility Wind Dir Wind Speed Gust Speed Precip Events Conditions
12:53 AM 61.0 °F 32.0 °F 34% 29.85 in 10.0 mi East 5.8 mph - N/A   Clear
1:53 AM 57.9 °F 33.1 °F 39% 29.86 in 10.0 mi ESE 10.4 mph - N/A   Clear
2:53 AM 60.1 °F 34.0 °F 38% 29.85 in 10.0 mi East 12.7 mph - N/A   Clear
3:53 AM 57.9 °F 33.1 °F 39% 29.85 in 10.0 mi ESE 6.9 mph - N/A   Clear
4:53 AM 55.9 °F 33.1 °F 42% 29.86 in 10.0 mi ESE 8.1 mph - N/A   Clear
5:53 AM 55.0 °F 33.1 °F 43% 29.88 in 10.0 mi ESE 11.5 mph - N/A   Clear
6:53 AM 52.0 °F 33.1 °F 49% 29.90 in 10.0 mi East 5.8 mph - N/A   Clear
7:53 AM 57.0 °F 33.1 °F 40% 29.90 in 10.0 mi ESE 6.9 mph - N/A   Clear
8:53 AM 61.0 °F 36.0 °F 39% 29.91 in 10.0 mi SE 9.2 mph - N/A   Clear
9:53 AM 68.0 °F 36.0 °F 31% 29.90 in 10.0 mi SSE 9.2 mph - N/A   Clear
10:53 AM 69.1 °F 35.1 °F 29% 29.92 in 10.0 mi Calm Calm - N/A   Clear
11:53 AM 73.0 °F 36.0 °F 26% 29.87 in 10.0 mi South 3.5 mph - N/A   Clear
12:53 PM 73.9 °F 37.0 °F 26% 29.85 in 10.0 mi WSW 4.6 mph - N/A   Clear
1:53 PM 77.0 °F 37.0 °F 24% 29.81 in 10.0 mi WNW 6.9 mph - N/A   Clear
2:53 PM 79.0 °F 35.1 °F 20% 29.77 in 10.0 mi NNW 10.4 mph - N/A   Clear
3:53 PM 80.1 °F 37.0 °F 21% 29.74 in 10.0 mi North 6.9 mph - N/A   Clear
4:53 PM 79.0 °F 39.9 °F 25% 29.74 in 10.0 mi SW 10.4 mph - N/A   Clear
5:53 PM 78.1 °F 43.0 °F 29% 29.73 in 10.0 mi South 9.2 mph - N/A   Clear
6:53 PM 77.0 °F 43.0 °F 30% 29.73 in 10.0 mi South 11.5 mph - N/A   Partly Cloudy
7:53 PM 75.9 °F 41.0 °F 29% 29.71 in 10.0 mi Calm Calm - N/A   Scattered Clouds
8:53 PM 70.0 °F 39.9 °F 33% 29.72 in 10.0 mi ESE 5.8 mph - N/A   Scattered Clouds
9:53 PM 70.0 °F 42.1 °F 36% 29.71 in 10.0 mi East 5.8 mph - N/A   Mostly Cloudy
10:53 PM 69.1 °F 41.0 °F 36% 29.71 in 10.0 mi East 6.9 mph - N/A   Scattered Clouds
11:53 PM 66.9 °F 39.9 °F 37% 29.69 in 10.0 mi ENE 4.6 mph - N/A   Scattered Clouds